KC2GYU Weather Reports


Display with metric or nautical units.
time (UTC)temp
F
wind
direction
speed
MPH
gust
MPH
rain 1hr
in
rain 24hr
in
rain mn
in
humidity
%
barometer
mb
20260505003812 58 258 0.0 0.0 0.00 0.00 0.00 89 1012.6
20260505003309 58 263 0.0 0.0 0.00 0.00 0.00 88 1012.6
20260505002805 58 275 0.0 0.0 0.00 0.00 0.00 88 1012.6
20260505002304 58 260 0.0 0.0 0.00 0.00 0.00 87 1012.4
20260505001800 59 266 0.0 0.0 0.00 0.00 0.00 86 1012.6
20260505001257 59 260 0.0 0.0 0.00 0.00 0.00 85 1012.1
20260505000754 59 259 0.0 0.0 0.00 0.00 0.00 84 1012.3
20260505000252 60 263 0.0 0.0 0.00 0.00 0.00 83 1012.3
20260504235748 60 250 0.0 0.0 0.00 0.00 0.00 83 1012.0
20260504235244 60 268 0.0 0.0 0.00 0.00 0.00 82 1012.2
20260504234742 60 264 0.0 0.0 0.00 0.00 0.00 82 1012.1
20260504234239 60 288 0.0 0.0 0.00 0.00 0.00 82 1012.0
20260504233735 60 252 0.0 0.0 0.00 0.00 0.00 81 1011.8
20260504233231 61 226 0.0 0.0 0.00 0.00 0.00 80 1011.9
20260504232729 61 240 0.0 0.0 0.00 0.00 0.00 79 1012.0
20260504232225 62 264 0.0 0.0 0.00 0.00 0.00 79 1011.9
20260504231722 62 288 0.0 0.0 0.00 0.00 0.00 78 1012.0
20260504231218 62 265 0.0 0.0 0.00 0.00 0.00 78 1011.9
20260504230714 62 265 0.0 0.0 0.00 0.00 0.00 77 1011.9
20260504230214 62 210 0.0 0.0 0.00 0.00 0.00 76 1011.8
20260504225712 63 297 0.0 0.0 0.00 0.00 0.00 76 1011.9
20260504225208 63 262 0.0 0.0 0.00 0.00 0.00 76 1011.9
20260504224705 63 256 0.0 0.0 0.00 0.00 0.00 76 1011.8
20260504224202 63 257 0.0 0.0 0.00 0.00 0.00 76 1011.9
20260504223659 63 267 0.0 0.0 0.00 0.00 0.00 76 1012.0
20260504223154 63 263 0.0 0.0 0.00 0.00 0.00 76 1011.8
20260504222651 63 317 0.0 0.0 0.00 0.00 0.00 75 1011.8
20260504222148 63 312 0.0 0.0 0.00 0.00 0.00 75 1011.9
20260504221645 64 271 0.0 0.0 0.00 0.00 0.00 75 1011.7
20260504221143 64 240 0.0 0.0 0.00 0.00 0.00 74 1011.7
20260504220639 64 243 0.0 0.0 0.00 0.00 0.00 73 1011.7
20260504220137 65 274 0.0 0.0 0.00 0.00 0.00 73 1012.0
20260504215632 65 270 0.0 0.0 0.00 0.00 0.00 73 1011.7
20260504215130 65 235 0.0 0.0 0.00 0.00 0.00 73 1011.9
20260504214626 65 245 0.0 0.0 0.00 0.00 0.00 73 1011.7
20260504214122 66 260 0.0 0.0 0.00 0.00 0.00 73 1012.0
20260504213619 66 252 0.0 0.0 0.00 0.00 0.00 74 1011.8
20260504213116 66 281 0.0 0.0 0.00 0.00 0.00 73 1011.8
20260504212612 66 254 0.0 0.0 0.00 0.00 0.00 73 1011.8
20260504212109 66 243 0.0 0.0 0.00 0.00 0.00 73 1012.0
20260504211606 67 247 0.0 0.0 0.00 0.00 0.00 73 1012.0
20260504211103 67 271 0.0 0.0 0.00 0.00 0.00 71 1012.1
20260504210600 67 269 0.0 0.0 0.00 0.00 0.00 71 1012.1
20260504210056 66 270 0.0 0.0 0.00 0.00 0.00 71 1012.2
20260504205554 67 228 0.0 0.0 0.00 0.00 0.00 71 1012.2
20260504205052 67 262 0.0 0.0 0.00 0.00 0.00 71 1012.3
20260504204550 67 272 0.0 0.0 0.00 0.00 0.00 72 1012.3
20260504204043 65 262 0.0 0.0 0.00 0.00 0.00 73 1012.3
20260504203541 66 257 0.0 0.0 0.00 0.00 0.00 73 1012.4
20260504203038 66 220 0.0 0.0 0.00 0.00 0.00 73 1012.6
20260504202533 66 261 0.0 0.0 0.00 0.00 0.00 73 1012.5
20260504202030 65 271 0.0 0.0 0.00 0.00 0.00 74 1012.4
20260504201527 66 250 0.0 0.0 0.00 0.00 0.00 72 1012.6
20260504201025 66 324 0.0 0.0 0.00 0.00 0.00 72 1012.8
20260504200521 68 277 0.0 0.0 0.00 0.00 0.00 71 1012.7
20260504200018 68 272 0.0 0.0 0.00 0.00 0.00 71 1012.6
20260504195514 67 271 0.0 0.0 0.00 0.00 0.00 73 1012.5
20260504195011 67 263 0.0 0.0 0.00 0.00 0.00 71 1012.8
20260504194508 67 280 0.0 0.0 0.00 0.00 0.00 72 1013.1
20260504194002 67 282 0.0 0.0 0.00 0.00 0.00 72 1013.0
20260504193455 66 244 0.0 0.0 0.00 0.00 0.00 73 1013.2
20260504192954 67 268 0.0 0.0 0.00 0.00 0.00 73 1013.3
20260504192450 66 266 0.0 0.0 0.00 0.00 0.00 74 1013.1
20260504191949 66 267 0.0 0.0 0.00 0.00 0.00 73 1013.2
20260504191447 67 258 0.0 0.0 0.00 0.00 0.00 72 1013.1
20260504190942 67 274 0.0 0.0 0.00 0.00 0.00 72 1013.1
20260504190438 67 250 0.0 0.0 0.00 0.00 0.00 72 1013.4
20260504185935 68 167 0.0 0.0 0.00 0.00 0.00 72 1013.2
20260504185432 67 273 0.0 0.0 0.00 0.00 0.00 72 1013.5
20260504184928 67 259 0.0 0.0 0.00 0.00 0.00 72 1013.6
20260504184424 67 228 0.0 0.0 0.00 0.00 0.00 69 1013.6
20260504183920 66 288 0.0 0.0 0.00 0.00 0.00 71 1013.6
20260504183417 67 142 0.0 0.0 0.00 0.00 0.00 71 1013.3
20260504182915 67 289 0.0 0.0 0.00 0.00 0.00 71 1013.6
20260504182412 67 291 0.0 0.0 0.00 0.00 0.00 70 1013.7
20260504181909 67 282 0.0 0.0 0.00 0.00 0.00 68 1013.6
20260504181406 67 285 0.0 0.0 0.00 0.00 0.00 69 1013.7
20260504180905 67 267 0.0 0.0 0.00 0.00 0.00 70 1013.9
20260504180403 68 255 0.0 0.0 0.00 0.00 0.00 68 1013.8
20260504175901 68 268 4.0 5.0 0.00 0.00 0.00 65 1013.8
20260504175357 68 265 3.0 5.0 0.00 0.00 0.00 66 1014.2
20260504174855 68 271 2.0 2.0 0.00 0.00 0.00 67 1014.1
20260504174353 69 241 4.0 5.0 0.00 0.00 0.00 65 1013.9
20260504173850 69 272 2.0 3.0 0.00 0.00 0.00 66 1014.0
20260504173346 68 275 1.0 1.0 0.00 0.00 0.00 68 1013.9
20260504172844 68 278 4.0 9.0 0.00 0.00 0.00 68 1014.2
20260504172340 68 287 3.0 5.0 0.00 0.00 0.00 67 1014.1
20260504171836 68 264 3.0 3.0 0.00 0.00 0.00 67 1014.2
20260504171333 68 250 2.0 2.0 0.00 0.00 0.00 68 1014.3
20260504170830 68 284 3.0 5.0 0.00 0.00 0.00 69 1014.4
20260504170327 68 270 4.0 6.0 0.00 0.00 0.00 68 1014.3
20260504160245 70 272 2.0 3.0 0.00 0.00 0.00 66 1014.9
20260504150711 68 234 1.0 2.0 0.00 0.00 0.00 59 1015.4
20260504150208 67 259 2.0 3.0 0.00 0.00 0.00 62 1015.4
20260504141136 66 247 5.0 6.0 0.00 0.00 0.00 61 1015.3
20260504140633 65 238 2.0 3.0 0.00 0.00 0.00 63 1015.5
20260504140129 65 286 5.0 7.0 0.00 0.00 0.00 61 1015.6
20260504130557 61 241 3.0 3.0 0.00 0.00 0.00 71 1016.0
20260504110444 52 268 0.0 0.0 0.00 0.00 0.00 84 1016.9
20260504100401 48 265 0.0 0.0 0.00 0.00 0.00 83 1016.9
20260504081754 47 267 0.0 0.0 0.00 0.00 0.00 78 1017.0
20260504081250 47 254 1.0 1.0 0.00 0.00 0.00 77 1016.7
20260504080747 48 262 0.0 1.0 0.00 0.00 0.00 76 1016.9
20260504080243 48 271 0.0 0.0 0.00 0.00 0.00 76 1016.8
20260504070211 45 268 0.0 0.0 0.00 0.00 0.00 82 1016.5
20260504010829 46 268 0.0 0.0 0.00 0.00 0.00 76 1015.1
20260504010324 46 269 0.0 0.0 0.00 0.00 0.00 75 1015.1
20260504005821 47 269 0.0 0.0 0.00 0.00 0.00 75 1015.2
20260504005318 47 269 0.0 0.0 0.00 0.00 0.00 74 1015.0
20260504004816 47 269 0.0 0.0 0.00 0.00 0.00 72 1014.7
20260504004313 47 269 0.0 0.0 0.00 0.00 0.00 70 1014.8